Tracking 21076 objects as of 7-Aug-2020
HD Live streaming from Space Station
objects crossing your sky now

FREGAT DEB

Track FREGAT DEB now!
10-day predictions


NORAD ID: 45617
Int'l Code: 2011-037L
Perigee: 421.7 km
Apogee: 3,572.8 km
Inclination: 51.4 °
Period: 127.0 minutes
Semi major axis: 8368 km
RCS: Unknown
Launch date: July 18, 2011
Source: Commonwealth of Independent States (former USSR) (CIS)
Launch site: TYURATAM MISSILE AND SPACE COMPLEX (TTMTR)

Note: This is SATELLITE DEBRIS
aabbcc
Your satellite tracking list
Your tracking list is empty




NASA's NSSDC Master Catalog

Two Line Element Set (TLE):
1 45617U 11037L   20219.38056674  .00015773  00000-0  29341-2 0  9992
2 45617  51.4360 222.3432 1882785 166.6220 199.2638 11.34108677  9762
Source of the keplerian elements: AFSPC